Location: R�o Tuerlos
(40.6704°N, 4.4622°W)
Time: 16:57:38
(UTC+00:00)

Cosmos 1933 - Pass Details

Date: 07 June 2020
Orbit: 546 x 564 km, 82.5° (Epoch: 13 July)

Event Time Altitude Azimuth Distance (km) Brightness Sun altitude
Rises 04:01:50 0° 347° (NNW) 2,739 7.3 -7.8°
Reaches altitude 10° 04:04:03 10° 343° (NNW) 1,837 6.3 -7.5°
Maximum altitude 04:07:59 53° 266° (W) 679 3.5 -6.9°
Drops below altitude 10° 04:11:53 10° 189° (S) 1,814 5.5 -6.3°
Sets 04:14:03 0° 185° (S) 2,700 6.4 -6.0°
